TimeCST,TemperatureF,Dew PointF,Humidity,Sea Level PressureIn,VisibilityMPH,Wind Direction,Wind SpeedMPH,Gust SpeedMPH,PrecipitationIn,Events,Conditions,WindDirDegrees,DateUTC
12:52 AM,33.1,26.1,75,30.22,-9999.0,Calm,Calm,-,N/A,,Unknown,0,2012-11-29 06:52:00
1:52 AM,30.9,26.1,82,30.22,-9999.0,Calm,Calm,-,N/A,,Unknown,0,2012-11-29 07:52:00
2:52 AM,32.0,26.1,79,30.21,-9999.0,SE,3.5,-,N/A,,Unknown,140,2012-11-29 08:52:00
3:52 AM,33.1,26.1,75,30.20,-9999.0,SSE,5.8,-,N/A,,Unknown,160,2012-11-29 09:52:00
4:52 AM,35.1,28.0,76,30.17,-9999.0,SSE,6.9,-,N/A,,Unknown,160,2012-11-29 10:52:00
5:52 AM,36.0,28.0,73,30.17,-9999.0,SSE,4.6,-,N/A,,Unknown,160,2012-11-29 11:52:00
6:52 AM,33.1,27.0,78,30.16,-9999.0,Calm,Calm,-,N/A,,Unknown,0,2012-11-29 12:52:00
7:52 AM,32.0,27.0,82,30.15,-9999.0,Calm,Calm,-,N/A,,Unknown,0,2012-11-29 13:52:00
8:52 AM,41.0,32.0,70,30.14,-9999.0,South,3.5,-,N/A,,Unknown,170,2012-11-29 14:52:00
9:52 AM,46.9,33.1,59,30.14,-9999.0,SSW,12.7,20.7,N/A,,Unknown,210,2012-11-29 15:52:00
10:52 AM,50.0,34.0,54,30.12,-9999.0,SSW,8.1,-,N/A,,Unknown,200,2012-11-29 16:52:00
11:52 AM,53.1,35.1,50,30.09,-9999.0,SSW,10.4,-,N/A,,Unknown,210,2012-11-29 17:52:00
12:52 PM,54.0,36.0,51,30.07,-9999.0,SW,9.2,-,N/A,,Unknown,230,2012-11-29 18:52:00
1:52 PM,57.0,37.0,47,30.04,-9999.0,SSW,9.2,-,N/A,,Unknown,210,2012-11-29 19:52:00
2:52 PM,55.9,37.0,49,30.02,-9999.0,South,6.9,-,N/A,,Unknown,180,2012-11-29 20:52:00
3:52 PM,55.9,37.9,51,30.01,-9999.0,South,5.8,-,N/A,,Unknown,190,2012-11-29 21:52:00
4:52 PM,53.1,37.9,57,30.01,-9999.0,Calm,Calm,-,N/A,,Unknown,0,2012-11-29 22:52:00
5:52 PM,43.0,34.0,71,30.03,-9999.0,Calm,Calm,-,N/A,,Unknown,0,2012-11-29 23:52:00
6:52 PM,41.0,34.0,76,30.04,-9999.0,Calm,Calm,-,N/A,,Unknown,0,2012-11-30 00:52:00
7:52 PM,39.0,33.1,79,30.04,-9999.0,Calm,Calm,-,N/A,,Unknown,0,2012-11-30 01:52:00
8:52 PM,37.0,33.1,86,30.04,-9999.0,Calm,Calm,-,N/A,,Unknown,0,2012-11-30 02:52:00
9:52 PM,35.1,32.0,89,30.04,-9999.0,Calm,Calm,-,N/A,,Unknown,0,2012-11-30 03:52:00
10:52 PM,35.1,30.9,85,30.03,-9999.0,South,3.5,-,N/A,,Unknown,170,2012-11-30 04:52:00
11:52 PM,37.0,33.1,86,30.03,-9999.0,South,5.8,-,N/A,,Unknown,180,2012-11-30 05:52:00